Content
SEND FEEDBACK

Daily
Averages
Monthly
Summary
France

COULOMMIERS, FRANCE


Home > Europe > France
Elevation: 466 feet     Latitude: 48 50N     Longitude: 003 00E

WEATHER
 
SELECT A DAY
Number of Records: 64,948;   Date Range: 7/28/06 - 9/15/14
 
SHARE

PRINT THIS DATA

[ ← Previous Day ]
WEATHER ALMANAC - MARCH 1, 2013
[ Next Day → ]
[ °C ]   °F
Weather ElementAverageHighLow
Temperature36.2 °F37.4 °F (10:00 am)35.6 °F (12:30 am)
Dewpoint31.8 °F32 °F (12:30 am)30.2 °F (4:00 pm)
Humidity84.2 %87 % (12:30 am)75 % (4:00 pm)
Barometer30.24 in30.27 in (12:00 pm)30.21 in (4:00 am)
Wind Speed6 mph10.4 mph (2:00 pm)
Weather ElementAverage
Visibility3.5 mi
Wind DirectionENE (73.4 °)

Weather ElementTotal
Precipitation---
Heating Degree Days28.5 (Base 65)
Averaged from 47 records on March 1, 2013
WEATHER CONDITIONS BREAKOUT
WIND DIRECTION BREAKOUT
WEATHER BY HOUR - MARCH 1, 2013
[ °C ]   °F
Local TimeTemperatureDewpointHumidityBarometerVisibilityWind DirectionWind SpeedGust SpeedPrecipitationEventsConditions
12:30 AM35.6 °F32.0 °F87 %30.24 in3.7 miNorth (10°)5.8 mphOvercast
1:00 AM35.6 °F32.0 °F87 %30.24 in3.7 miNorth (360°)5.8 mphOvercast
1:30 AM35.6 °F32.0 °F87 %30.24 in3.7 miNorth (10°)5.8 mphOvercast
2:00 AM35.6 °F32.0 °F87 %30.24 in3.7 miNorth (10°)5.8 mphOvercast
2:30 AM35.6 °F32.0 °F87 %30.24 in3.7 miNNE (20°)5.8 mphOvercast
3:00 AM35.6 °F32.0 °F87 %30.24 in4.3 miNNE (20°)4.6 mphOvercast
3:30 AM35.6 °F32.0 °F87 %30.24 in3.7 miNorth (10°)4.6 mphOvercast
4:00 AM35.6 °F32.0 °F87 %30.21 in3.7 miNorth (360°)4.6 mphOvercast
4:30 AM35.6 °F32.0 °F87 %30.21 in3.1 miNorth (360°)3.5 mphOvercast
5:00 AM35.6 °F32.0 °F87 %30.21 in3.1 miNorth (360°)5.8 mphOvercast
5:30 AM35.6 °F32.0 °F87 %30.21 in3.1 miNorth (360°)6.9 mphOvercast
6:00 AM35.6 °F32.0 °F87 %30.21 inNorth (10°)4.6 mphOvercast
6:30 AM35.6 °F32.0 °F87 %30.21 inNorth (360°)5.8 mphOvercast
7:00 AM35.6 °F32.0 °F87 %30.21 inNorth (10°)5.8 mphOvercast
7:30 AM35.6 °F32.0 °F87 %30.21 inNNE (20°)4.6 mphOvercast
8:00 AM35.6 °F32.0 °F87 %30.24 inNorth (10°)4.6 mphOvercast
8:30 AM35.6 °F32.0 °F87 %30.24 inNorth (10°)5.8 mphOvercast
9:00 AM35.6 °F32.0 °F87 %30.24 inNorth (10°)5.8 mphOvercast
9:30 AM35.6 °F32.0 °F87 %30.24 in2.8 miNorth (10°)4.6 mphOvercast
10:00 AM37.4 °F32.0 °F81 %30.24 inNNE (20°)4.6 mphOvercast
10:30 AM37.4 °F32.0 °F81 %30.24 inNorth (10°)5.8 mphOvercast
11:00 AM37.4 °F32.0 °F81 %30.24 inNorth (10°)6.9 mphOvercast
11:30 AM37.4 °F32.0 °F81 %30.24 inNorth (10°)5.8 mphOvercast
12:00 PM37.4 °F32.0 °F81 %30.27 in3.1 miNorth (10°)5.8 mphOvercast
12:30 PM37.4 °F32.0 °F81 %30.24 in3.1 miNorth (10°)6.9 mphOvercast
1:00 PM37.4 °F32.0 °F81 %30.24 in3.1 miNorth (10°)6.9 mphOvercast
1:30 PM37.4 °F32.0 °F81 %30.24 in2.8 miNorth (10°)6.9 mphOvercast
2:00 PM35.6 °F32.0 °F87 %30.24 in1.7 miNorth (360°)10.4 mphOvercast
2:30 PM35.6 °F32.0 °F87 %30.24 in1.9 miNorth (10°)9.2 mphOvercast
3:00 PM35.6 °F32.0 °F87 %30.24 inNorth (10°)8.1 mphOvercast
3:30 PM37.4 °F32.0 °F81 %30.24 inNorth (10°)8.1 mphOvercast
4:00 PM37.4 °F30.2 °F75 %30.24 in3.1 miNorth (10°)8.1 mphOvercast
4:30 PM35.6 °F32.0 °F87 %30.24 in3.1 miNorth (10°)8.1 mphOvercast
5:00 PM35.6 °F32.0 °F87 %30.24 in3.1 miNNE (20°)6.9 mphOvercast
5:30 PM35.6 °F32.0 °F87 %30.21 in3.1 miNNE (20°)6.9 mphOvercast
6:00 PM35.6 °F32.0 °F87 %30.24 inNNE (20°)5.8 mphOvercast
6:30 PM35.6 °F30.2 °F81 %30.24 in3.1 miNNE (20°)6.9 mphOvercast
7:00 PM37.4 °F30.2 °F75 %30.24 in3.1 miNE (40°)5.8 mphOvercast
7:30 PM35.6 °F30.2 °F81 %30.24 in3.1 miNE (40°)4.6 mphOvercast
8:00 PM35.6 °F30.2 °F81 %30.24 in3.1 miNNE (30°)3.5 mphOvercast
8:30 PM35.6 °F32.0 °F87 %30.24 in3.1 miVariable2.3 mphOvercast
9:00 PM37.4 °F30.2 °F75 %30.24 in3.1 miNNE (20°)5.8 mphOvercast
9:30 PM35.6 °F32.0 °F87 %30.24 in3.1 miNorth (360°)4.6 mphOvercast
10:00 PM37.4 °F32.0 °F81 %30.24 in3.7 miNorth (10°)4.6 mphOvercast
10:30 PM37.4 °F32.0 °F81 %30.27 in6.2 miNorth (10°)5.8 mphOvercast
11:00 PM37.4 °F32.0 °F81 %30.27 in6.2 miNNE (20°)8.1 mphOvercast
11:30 PM37.4 °F32.0 °F81 %30.24 in6.2 miNNE (20°)6.9 mphOvercast
Hourly data recorded from LFPM, located miles away from Coulommiers, France







STORIES FROM OUR PARTNERS